Location: *
(41.7492°S, 135.4150°W)
Time: 04:41:55
(UTC+00:00)

AO-27 - Pass Details

Date: 06 July 2022
Orbit: 786 x 796 km, 98.9° (Epoch: 14 August)

Event Time Altitude Azimuth Distance (km) Brightness Sun altitude
Rises 15:38:59 0° 27° (NNE) 3,294 11.7 -9.2°
Reaches altitude 10° 15:41:19 10° 30° (NNE) 2,372 11.0 -8.8°
Maximum altitude 15:46:28 59° 108° (ESE) 931 8.4 -7.9°
Drops below altitude 10° 15:51:39 10° 186° (S) 2,396 9.9 -7.0°
Sets 15:54:02 0° 189° (S) 3,331 10.6 -6.6°
